Wind_Speed
43 43 44 44 45 46 47 48 49 50 52 51 52 55 56 58 55 56 53 46 49 54 51 49 50 50 52 51 48 46 43 43 42 40 40 39 39 38 37 35 33 31 28 26 23 20 19 19 17 16 15 13 12 12 12 12 13 13 13 12 11 10 10 10 10 10 11 11 11 11 11 11 11 12 13 14 14 14 14 15 16 17 17 17 17
43 44 45 45 45 46 48 49 50 51 52 52 53 56 58 60 58 59 57 43 41 53 55 51 52 54 54 53 51 48 46 45 45 43 43 43 42 40 38 37 35 32 30 28 25 22 20 19 18 17 16 15 14 13 12 12 12 12 12 11 10 10 10 10 11 11 12 12 12 12 12 12 13 13 14 14 14 14 14 15 16 17 16 16 16
42 45 46 46 47 47 48 50 51 52 54 53 54 57 58 61 61 60 62 53 41 46 57 54 53 57 57 56 54 53 51 49 47 46 46 46 45 43 40 38 36 34 32 30 27 24 21 21 20 18 17 15 15 14 13 12 12 11 11 10 10 10 10 10 11 12 12 12 13 13 13 13 13 14 14 14 15 14 14 14 16 16 16 16 16
41 44 47 48 48 49 50 51 52 53 55 54 54 56 58 60 62 61 63 63 51 45 53 55 53 57 59 59 58 56 54 52 50 49 48 48 46 44 41 39 38 36 34 32 29 26 24 23 22 20 19 17 15 14 13 12 11 10 10 9 9 9 9 10 11 11 11 12 13 13 14 14 14 13 14 15 15 14 14 14 15 16 16 15 15
40 43 46 49 50 51 51 52 53 54 55 56 55 56 58 59 62 64 63 65 60 51 51 55 54 56 60 61 59 57 55 53 53 52 50 48 47 44 41 39 39 38 36 33 30 28 26 25 24 23 21 19 17 15 13 11 10 10 9 9 9 9 9 9 10 10 11 11 12 13 14 14 14 13 14 14 14 14 14 14 15 15 15 15 15
36 41 46 48 50 51 52 52 53 55 56 57 57 57 58 58 59 63 65 65 62 55 53 56 56 56 60 61 59 58 57 54 53 52 49 48 46 44 42 41 41 39 37 35 32 30 29 27 26 25 24 22 21 18 15 13 12 11 10 9 8 8 8 9 9 9 10 11 12 12 13 14 14 14 14 14 14 14 14 14 15 16 15 15 16
33 37 43 47 49 51 53 54 54 55 57 57 58 58 58 58 57 59 65 67 64 58 54 55 57 56 58 62 61 59 57 55 53 51 48 47 46 46 45 44 43 41 38 37 34 32 30 29 27 27 26 25 24 22 18 15 14 13 12 10 9 8 7 8 8 8 9 10 10 11 12 13 13 14 14 14 13 14 14 15 16 16 16 16 16
34 34 37 43 47 50 51 54 55 55 57 58 58 59 59 59 58 58 61 66 68 65 58 54 55 55 56 61 62 60 58 56 53 52 50 49 49 49 48 47 46 43 40 38 36 33 32 30 29 29 28 27 27 25 23 19 17 15 13 12 9 7 6 7 7 8 8 8 9 10 11 12 12 13 13 13 13 12 13 15 17 16 16 17 17
35 35 34 38 43 48 50 52 55 55 56 57 58 59 60 60 59 58 59 63 67 69 68 61 56 56 57 58 61 60 59 58 55 54 53 50 50 50 49 48 48 44 41 39 37 35 33 32 31 31 30 29 29 28 26 23 20 17 15 13 10 7 6 6 6 6 7 7 7 9 10 10 11 12 13 13 13 11 10 14 17 17 17 17 18
36 36 35 35 38 44 48 50 53 54 55 56 57 58 60 60 60 59 58 60 64 68 70 68 63 60 59 59 60 56 55 59 60 56 54 52 50 49 49 49 48 46 42 40 38 36 35 34 33 32 31 31 31 31 29 26 22 19 17 15 11 8 5 5 5 5 6 5 6 7 8 9 10 11 12 12 12 10 9 10 15 17 17 18 18
36 37 37 36 35 38 43 47 49 52 54 54 55 56 58 59 60 59 58 58 61 65 68 69 66 64 62 61 60 54 49 56 63 61 57 55 52 49 49 49 49 47 44 41 40 38 36 36 35 34 33 33 33 32 32 29 25 22 19 16 13 9 6 5 5 5 5 5 5 6 8 8 9 10 11 11 11 10 9 9 13 16 17 17 18
37 37 38 38 37 35 37 42 46 49 51 52 53 54 56 57 58 59 59 58 59 62 65 66 65 65 65 63 62 59 54 54 62 66 63 59 54 51 50 50 49 48 46 43 41 40 39 38 37 35 35 35 34 33 33 32 28 25 22 19 15 12 8 6 5 5 4 4 5 6 7 8 9 10 11 11 10 10 10 10 12 16 17 17 18
38 37 38 39 40 38 35 36 40 44 47 50 51 51 53 55 56 56 57 58 59 60 61 62 62 62 64 65 65 64 60 56 60 67 68 64 57 53 52 51 51 50 48 46 43 41 41 40 38 37 36 37 36 34 34 35 32 28 25 21 18 14 11 8 7 6 5 5 5 6 7 8 9 10 10 11 11 10 11 10 12 15 17 17 18
40 38 38 38 40 40 38 35 34 37 41 45 48 49 50 51 52 53 55 57 59 60 59 59 61 60 59 62 64 63 60 57 60 67 71 68 60 57 56 53 52 52 50 49 46 44 43 41 40 39 38 39 39 37 36 37 35 32 29 25 21 17 14 12 10 9 8 7 6 6 8 8 9 10 10 11 11 11 11 11 13 15 16 17 18
42 40 38 38 39 40 40 37 35 34 35 38 42 45 47 48 49 49 52 55 58 59 58 58 60 59 58 57 57 59 59 56 61 68 70 69 63 59 59 57 55 54 52 51 50 47 45 44 42 42 41 41 40 39 38 38 38 36 32 29 25 21 18 15 13 12 11 9 9 8 8 9 10 11 11 11 11 11 11 12 13 15 16 17 17
43 42 41 40 39 40 40 40 38 36 34 35 36 39 41 44 47 47 48 52 56 57 57 58 59 59 59 56 51 53 56 54 59 67 68 66 65 62 61 59 57 56 54 54 52 50 48 46 45 44 43 43 42 41 40 39 40 39 36 33 30 25 22 19 16 15 14 12 12 11 10 10 11 11 11 11 11 11 12 12 13 14 16 16 16
45 45 44 42 41 40 40 40 41 40 38 37 36 37 38 39 43 45 47 50 53 55 56 57 58 58 61 60 52 48 51 53 57 65 67 65 65 65 63 61 59 56 55 55 55 53 51 49 47 46 45 44 44 43 41 40 40 40 39 37 34 30 26 23 19 18 17 15 14 14 13 11 12 12 11 11 12 12 12 12 13 14 15 16 16
44 46 46 45 43 41 40 39 40 41 40 39 37 37 37 37 39 42 45 48 50 52 54 55 56 57 61 64 59 48 42 45 53 61 65 65 66 65 64 63 59 57 56 56 57 56 54 53 51 50 49 47 46 45 43 41 40 40 40 39 37 33 29 27 23 21 20 18 17 17 16 14 13 13 12 12 12 12 12 12 13 14 15 16 16
39 44 45 46 45 43 42 40 40 40 39 39 37 36 36 36 37 40 43 47 50 50 51 52 53 56 59 63 66 59 45 38 44 54 57 59 62 64 63 62 59 59 59 58 58 59 57 56 55 54 52 50 48 47 45 42 39 38 39 40 39 36 33 30 27 25 23 20 19 19 19 17 15 14 13 13 13 13 12 12 13 14 15 16 16
31 38 42 44 45 44 43 41 41 40 40 39 37 36 35 35 36 38 41 45 49 50 49 48 50 54 57 59 65 68 59 44 38 43 46 48 54 59 62 61 57 58 62 59 57 59 59 57 56 55 54 53 52 49 47 44 40 36 36 38 40 39 36 33 30 28 25 22 21 21 22 21 18 16 15 14 14 13 12 12 13 13 15 16 17
25 30 36 40 42 43 42 42 41 41 40 39 38 36 35 34 34 36 40 44 47 49 49 47 47 51 54 57 62 66 65 55 43 41 41 42 49 55 59 61 57 57 62 61 59 60 61 60 58 56 55 55 54 50 46 44 41 37 34 35 39 41 40 36 33 30 28 25 23 23 24 23 21 19 17 16 15 13 13 13 13 14 15 16 17
19 23 30 35 39 41 41 41 41 41 41 40 39 38 37 36 36 36 38 43 46 48 49 48 48 49 51 55 59 61 64 61 52 45 41 40 45 50 53 58 59 59 63 64 63 63 64 63 61 57 55 54 52 49 45 43 41 37 34 32 34 39 41 40 36 32 30 28 26 26 26 25 23 21 20 18 16 14 13 14 14 14 15 16 16
13 18 27 32 35 38 39 40 42 42 42 42 41 40 39 38 39 39 39 41 44 47 49 50 49 49 50 53 56 58 62 65 58 51 46 41 42 46 48 53 58 61 64 66 65 65 64 64 61 56 54 54 52 49 45 41 39 37 35 31 30 34 40 42 39 35 33 31 29 28 27 26 25 24 22 20 18 16 14 14 14 15 16 16 16
12 12 23 30 32 34 36 38 40 41 42 43 43 41 39 38 39 41 41 41 43 45 48 50 50 50 50 52 54 56 62 66 59 52 50 46 41 44 48 52 56 60 64 65 64 62 62 63 61 56 53 53 52 50 46 42 40 40 38 34 32 35 40 44 42 39 36 33 31 30 29 28 27 26 24 22 20 17 15 15 15 15 16 17 17
14 10 14 24 30 32 34 36 37 40 41 42 42 41 39 37 38 41 42 42 42 44 46 48 50 51 51 51 53 55 62 66 59 50 50 48 42 44 49 51 54 58 63 63 60 58 59 60 59 56 53 52 52 51 48 45 44 43 40 37 35 36 41 45 44 40 38 35 33 32 31 30 29 27 25 24 22 19 17 16 15 16 17 17 18
15 13 11 14 21 28 32 35 37 39 39 39 39 41 40 38 37 41 43 43 42 42 43 46 48 51 52 52 52 54 60 65 61 54 52 49 46 47 50 51 53 57 61 61 58 56 56 58 59 57 53 51 52 53 51 48 46 44 41 38 36 37 41 44 44 41 39 37 35 33 33 32 31 29 28 26 24 21 19 17 16 17 17 18 18
16 15 15 15 18 23 28 32 35 37 36 33 33 37 39 38 37 41 43 43 42 40 41 44 47 50 52 53 53 54 57 61 61 57 55 52 50 50 50 51 55 61 62 59 56 55 54 55 58 60 58 55 54 55 54 51 47 44 42 39 36 36 40 42 43 42 40 38 36 34 33 32 32 31 30 28 25 23 21 19 17 17 18 19 19
19 17 17 18 19 22 26 29 31 34 34 33 32 34 36 37 37 40 42 42 41 39 38 41 45 49 52 53 54 54 55 58 58 57 58 57 54 53 51 49 53 61 64 60 58 56 55 55 57 60 61 60 59 58 55 52 51 48 45 43 38 36 38 41 42 42 41 39 37 35 33 32 33 33 32 30 27 24 23 21 19 19 19 20 20
19 19 18 18 18 19 21 22 24 27 30 31 32 33 35 35 36 38 40 40 40 38 36 38 43 47 50 53 55 54 54 56 57 57 60 61 59 57 55 51 51 57 60 60 59 59 57 58 60 61 62 62 61 60 56 54 54 52 48 44 40 36 36 39 41 42 42 41 39 36 33 32 33 33 33 32 29 26 25 23 21 20 20 21 21
16 19 18 17 16 15 14 14 17 21 24 26 28 31 33 33 34 35 36 37 37 36 34 34 37 43 48 52 55 56 55 56 57 58 61 63 62 60 58 55 52 55 57 58 60 60 60 60 62 62 63 62 62 63 59 55 54 51 46 44 43 39 37 38 40 41 41 40 39 36 34 33 34 34 34 33 31 28 27 26 24 22 22 22 22
19 16 17 17 15 12 10 10 13 16 18 19 22 26 29 30 31 31 32 34 34 35 34 33 34 38 45 51 55 56 57 57 58 58 61 63 64 63 61 58 54 53 56 59 61 61 61 61 61 62 63 62 62 63 62 58 54 49 44 43 43 43 41 41 41 41 41 40 38 37 36 35 34 35 35 34 33 30 29 28 27 25 24 24 24
23 16 14 15 15 13 11 10 12 14 16 17 19 21 24 26 28 29 30 31 32 33 33 33 33 35 41 48 54 57 57 58 58 59 60 63 65 64 63 62 59 56 55 57 59 61 61 61 60 61 64 64 62 61 61 62 61 58 52 46 44 43 44 44 44 44 43 41 40 39 38 37 36 36 36 36 35 33 31 30 29 28 27 26 26
25 20 11 12 14 14 14 12 12 13 15 16 18 19 21 24 26 29 30 31 32 33 33 33 33 33 37 44 52 57 58 58 58 59 60 62 65 66 64 64 64 62 58 57 57 58 61 61 60 62 66 66 64 61 59 62 64 64 61 56 50 47 46 46 46 45 45 44 43 41 41 39 39 39 39 38 37 35 34 32 30 30 29 29 29
23 21 12 9 13 14 14 15 15 16 16 16 18 19 21 24 27 30 32 33 33 34 35 35 35 34 36 41 48 54 58 59 58 59 60 61 64 66 66 66 67 66 63 61 58 56 58 61 61 62 65 66 65 62 61 62 62 62 62 61 56 52 50 49 48 47 47 47 46 45 43 42 41 41 42 41 39 37 37 35 33 31 32 32 31
21 19 13 7 10 13 14 14 15 16 17 18 20 22 24 26 28 30 32 34 36 36 37 37 37 36 37 41 47 52 56 58 58 58 60 62 64 66 66 67 69 69 67 64 61 58 57 58 59 60 61 62 63 62 62 62 60 59 61 61 59 56 54 52 51 50 50 50 50 48 46 45 44 44 43 43 41 40 38 37 35 33 34 35 33
21 17 13 8 7 10 13 14 14 15 16 18 20 24 27 29 31 33 33 33 35 36 37 37 37 37 37 39 44 51 55 58 60 61 61 61 63 67 68 69 70 70 69 67 64 62 60 57 58 58 56 57 59 60 60 59 58 58 59 60 60 59 57 55 53 53 53 53 53 52 50 48 47 46 45 44 44 43 40 38 37 35 36 37 36
21 18 15 12 8 8 11 13 13 14 15 16 18 21 24 28 31 34 35 34 34 34 35 35 36 37 37 37 41 47 53 56 59 61 63 63 65 67 69 70 72 72 71 69 67 66 64 61 59 57 52 52 55 57 57 56 55 57 60 61 61 59 58 56 55 56 56 55 55 54 52 51 50 49 47 46 46 46 43 39 38 37 37 38 38
20 19 18 16 12 8 10 12 12 13 14 15 17 18 20 23 26 30 33 36 35 33 33 34 35 35 37 37 39 43 49 53 55 56 58 62 66 69 71 73 74 74 74 72 70 69 69 67 64 61 56 52 52 54 55 54 52 54 59 63 63 61 59 57 57 58 58 57 57 56 55 53 51 50 49 49 49 49 46 42 39 39 39 39 40
21 19 18 19 16 11 8 10 11 12 13 14 16 16 16 18 21 24 28 33 35 33 32 32 33 34 35 37 38 40 45 51 54 54 54 56 58 62 68 74 77 78 78 77 74 73 72 70 68 67 65 62 58 56 55 53 51 52 56 60 62 62 60 58 58 58 59 59 58 57 56 54 53 52 52 52 52 52 51 47 42 41 40 39 40
19 19 19 19 17 13 9 9 11 12 12 12 13 14 13 14 16 18 22 27 31 31 29 29 31 33 34 35 38 41 44 47 50 52 54 56 54 52 56 65 73 77 80 80 79 77 76 74 72 71 70 68 66 64 61 56 52 51 52 55 58 61 61 60 59 59 60 61 60 58 57 56 55 55 55 55 55 55 55 52 48 45 42 39 41
17 18 19 19 18 15 11 9 10 13 13 12 11 10 10 10 12 14 17 22 26 29 29 29 30 32 34 35 37 42 45 47 47 48 51 55 56 54 53 55 58 63 70 77 80 80 79 78 76 75 73 71 69 69 68 64 58 54 53 53 55 57 60 60 61 61 62 62 62 61 59 57 55 55 55 56 57 57 57 56 52 48 45 43 45
19 17 17 18 18 18 15 11 10 12 14 14 12 9 7 7 10 13 16 20 24 28 30 31 31 33 34 35 37 41 46 48 49 49 50 52 54 56 56 55 52 51 56 64 73 79 81 82 80 77 74 72 71 70 69 68 66 63 61 58 55 55 58 59 60 61 62 64 64 63 61 59 57 56 55 55 55 56 57 58 55 51 49 49 50
20 19 17 17 18 18 16 14 13 12 13 14 13 11 8 6 8 12 17 21 24 27 29 31 32 34 35 36 37 40 45 48 49 50 52 53 52 51 54 59 59 53 48 48 51 57 64 72 78 78 72 69 69 70 70 69 70 70 68 65 61 58 58 59 60 60 60 62 64 64 63 61 58 58 58 57 56 56 56 58 58 55 52 52 53
20 20 19 19 19 18 16 15 15 14 12 12 12 12 11 9 9 11 16 20 24 26 28 30 32 34 35 36 38 40 43 46 48 49 51 54 56 52 50 57 62 58 50 44 41 40 44 52 64 72 71 68 67 68 68 68 68 68 68 68 66 63 61 61 61 61 60 60 61 61 61 61 60 59 60 59 58 57 56 57 59 57 55 56 57
21 21 21 21 21 20 19 17 15 14 13 11 11 12 12 12 12 13 15 18 22 25 27 29 31 33 35 36 38 40 42 45 48 50 50 53 57 55 52 54 59 56 51 47 46 46 45 47 52 59 63 65 65 67 68 68 67 66 65 65 65 64 62 61 60 60 60 61 60 59 59 60 60 60 60 60 60 58 55 54 55 56 58 60 59
20 21 21 22 22 22 22 21 18 16 14 11 9 9 9 12 14 16 16 18 19 22 25 27 30 32 34 36 38 40 42 44 46 50 51 52 54 54 53 55 57 55 50 48 49 50 48 46 47 51 55 59 63 66 68 68 67 65 63 63 63 62 60 59 59 59 59 61 61 61 59 58 59 59 58 58 58 57 55 53 53 55 57 58 55
19 20 21 22 22 22 23 22 21 19 17 14 12 10 9 9 11 14 16 19 20 21 22 24 27 30 32 35 37 39 41 44 45 48 51 53 54 54 54 55 58 57 53 50 50 51 49 47 47 49 53 57 60 63 65 67 67 64 61 61 61 60 58 58 58 59 59 60 62 63 61 58 58 59 58 57 56 55 55 55 55 55 54 53 50
19 20 21 22 22 23 23 22 21 21 20 18 18 17 15 12 11 10 11 15 19 21 23 24 25 27 29 32 34 37 40 43 45 47 50 53 56 57 56 56 56 57 55 52 51 53 53 52 50 49 51 54 57 59 61 64 65 64 61 59 59 59 58 57 57 58 60 61 62 64 63 61 60 61 60 59 56 55 54 55 55 54 53 51 49
20 20 21 22 23 23 24 23 22 21 21 21 21 20 20 18 16 14 12 11 13 18 22 24 27 28 29 30 33 35 38 41 44 47 50 52 56 59 60 59 58 58 57 55 54 54 55 55 55 53 52 52 53 56 58 61 63 64 63 62 62 62 61 59 57 58 61 63 63 64 64 64 63 62 61 59 57 55 54 54 55 54 53 52 51
23 23 23 22 23 23 24 24 24 23 22 22 23 23 22 21 20 19 18 15 13 13 16 19 23 28 31 32 32 34 36 39 42 45 48 51 54 57 60 61 61 60 59 59 59 58 56 56 57 59 57 55 54 56 57 59 62 65 66 66 66 66 65 62 59 60 62 63 63 64 66 65 64 62 59 58 57 56 55 55 55 55 55 54 52
25 26 26 26 26 25 25 25 25 25 24 23 23 23 23 23 22 21 20 18 17 16 15 15 16 21 27 32 33 33 34 36 39 42 44 48 51 55 58 60 61 61 60 60 61 62 61 60 60 61 61 59 58 57 57 58 60 63 65 66 67 67 66 62 60 60 61 60 60 61 62 62 60 57 55 53 54 56 57 58 57 57 58 57 54
Wind_Direction
227 227 226 224 224 226 227 227 227 227 226 224 224 224 223 223 225 226 227 232 228 221 219 220 222 219 216 218 214 210 212 215 217 214 208 206 205 206 207 207 208 208 209 211 213 211 207 206 207 212 218 222 227 231 232 234 236 241 248 254 259 264 269 274 280 283 284 286 289 292 297 303 304 303 301 301 306 311 313 312 311 311 313 315 317
229 228 227 225 223 223 226 227 227 227 227 226 225 225 224 223 224 225 226 231 229 223 221 219 219 219 217 219 216 211 212 214 217 216 211 208 207 207 208 209 209 208 208 210 212 211 207 207 211 213 216 220 224 228 230 232 234 239 245 253 259 264 270 276 280 283 285 289 293 295 301 306 307 305 303 304 310 315 316 314 311 311 313 314 316
231 229 228 226 224 222 223 226 227 228 227 225 226 226 225 223 223 225 226 230 233 226 222 220 219 218 216 218 218 213 211 212 215 217 214 211 209 207 208 209 210 209 208 210 212 211 207 207 212 215 215 217 222 224 228 230 232 236 243 252 261 264 268 275 279 283 287 292 294 298 303 306 306 306 307 311 316 319 318 314 310 311 314 315 318
232 231 229 227 225 223 222 224 226 228 228 226 226 228 228 225 222 224 225 229 235 232 223 222 221 219 216 216 218 216 213 211 212 215 216 216 213 210 209 210 211 210 209 210 211 211 207 207 210 214 215 217 221 222 225 230 232 235 242 251 260 264 268 274 279 284 289 292 295 300 304 305 307 310 312 317 320 320 317 313 311 312 314 316 318
233 232 232 228 226 225 223 223 224 227 229 227 227 228 229 228 224 223 225 227 233 234 228 225 223 221 218 216 217 217 216 214 212 213 216 218 217 215 212 212 213 211 209 209 211 211 208 207 209 212 216 218 221 221 222 230 236 239 243 250 258 264 270 274 279 285 290 293 296 301 303 305 311 315 317 319 318 316 315 315 314 314 315 317 318
238 235 234 231 228 226 224 224 224 226 228 228 229 230 230 230 226 223 224 226 230 231 231 230 227 223 219 218 218 218 219 217 215 215 216 219 219 217 214 214 215 213 209 208 210 211 209 209 210 213 216 219 222 223 224 231 241 244 246 251 257 263 270 276 281 285 289 293 298 301 303 308 315 318 317 316 315 315 319 319 317 315 316 317 319
243 240 238 236 232 229 226 225 225 226 228 228 229 231 232 231 229 225 224 225 227 227 227 229 230 226 220 217 218 219 221 221 218 217 218 220 221 219 216 214 216 215 211 209 210 210 210 210 211 214 217 220 222 225 228 233 240 244 245 248 255 261 269 276 280 284 287 292 298 302 307 313 317 316 315 315 316 319 321 319 316 316 316 317 319
244 243 241 239 237 234 229 227 227 228 229 229 228 230 233 233 231 228 226 225 227 227 226 227 229 228 222 218 218 219 222 223 222 220 218 220 223 222 219 215 216 216 213 210 210 210 211 211 212 215 219 222 223 226 229 231 235 238 239 242 246 255 264 273 277 280 284 291 300 307 312 316 315 314 315 317 321 324 321 317 316 316 316 316 317
245 245 243 240 238 238 235 230 229 229 230 231 230 230 232 234 233 230 228 226 226 228 229 229 228 228 227 222 219 219 222 224 225 224 221 220 223 225 224 219 217 216 213 210 209 210 212 213 213 215 220 223 223 225 227 228 231 233 233 235 238 244 257 267 272 277 281 291 303 311 314 316 314 314 316 318 323 327 322 314 312 313 314 314 315
249 246 245 243 240 239 238 235 232 230 231 232 232 231 232 233 234 232 229 228 227 228 230 231 231 230 229 225 221 222 225 225 224 225 224 222 223 225 227 224 219 217 213 209 209 210 212 214 214 216 220 224 225 225 225 225 226 226 227 228 228 231 246 258 265 273 280 292 307 313 314 314 313 314 316 316 319 325 323 307 303 307 311 311 314
253 250 246 244 242 240 239 239 236 233 232 233 233 234 233 233 234 234 232 230 230 229 230 232 232 232 230 225 222 226 230 227 223 224 223 223 223 224 227 226 221 217 214 210 209 210 213 215 216 217 220 224 227 226 224 224 223 221 220 221 220 220 229 244 258 271 281 293 306 312 312 311 311 311 312 313 316 321 322 310 300 304 309 310 314
256 254 250 244 242 241 239 239 239 238 236 235 235 235 235 235 235 235 234 232 232 232 232 233 232 233 232 227 224 228 235 232 225 223 223 222 221 222 226 227 223 218 214 210 209 210 213 216 217 218 220 225 228 229 225 223 222 218 215 215 214 214 216 228 246 261 273 286 298 304 307 307 307 308 307 309 313 316 319 316 305 304 309 312 314
258 256 253 246 241 240 240 239 239 240 240 238 238 237 236 236 236 236 235 234 233 234 235 234 233 233 233 232 231 232 236 234 225 221 221 220 220 221 224 227 225 220 215 210 209 210 214 216 217 218 220 224 228 229 226 223 220 217 214 212 211 211 212 218 231 245 256 270 283 291 298 302 301 303 304 307 310 312 315 314 303 302 309 312 313
258 255 253 249 244 240 239 240 239 239 240 241 241 240 239 237 236 236 236 235 235 235 235 235 235 232 231 234 236 236 239 236 224 219 219 219 219 220 222 225 225 222 217 212 209 209 213 216 217 218 220 224 227 227 225 222 219 216 213 211 211 210 210 215 224 235 244 255 265 275 287 295 296 298 303 305 307 310 311 310 304 306 311 311 312
257 256 252 249 247 242 238 238 238 238 239 240 242 242 241 239 237 236 236 236 236 236 235 235 235 232 229 231 236 239 241 236 222 216 217 218 219 221 222 224 225 223 219 214 210 208 211 214 215 217 219 222 225 225 223 221 218 216 214 212 212 211 210 213 221 229 237 245 253 261 275 287 290 294 300 304 306 307 307 308 307 310 313 310 311
256 256 254 250 247 245 240 237 236 237 238 240 242 242 242 240 237 235 235 235 236 236 235 235 235 232 227 225 231 236 233 225 216 213 214 216 218 221 222 224 225 224 221 216 212 209 209 212 214 215 217 219 222 223 223 221 218 215 213 213 213 212 212 214 220 228 234 240 247 254 264 277 285 289 295 301 303 303 304 307 309 312 313 306 306
253 253 254 252 249 245 242 239 237 238 240 241 242 242 241 240 237 235 233 233 235 236 236 237 236 233 227 223 224 226 220 213 211 213 214 216 217 219 222 223 224 225 222 218 215 211 210 211 213 215 217 218 220 222 222 221 219 216 214 214 213 213 213 215 220 227 232 237 244 251 256 266 277 283 289 295 298 299 303 307 310 314 313 307 309
250 250 251 252 251 248 244 241 239 239 240 241 240 240 240 239 236 234 232 231 233 235 235 237 237 235 230 224 221 220 217 211 209 211 214 215 216 218 221 222 223 224 221 217 216 214 211 211 211 213 216 218 220 222 221 219 218 216 214 214 214 215 216 217 220 226 231 235 242 249 253 259 269 276 282 287 290 295 300 305 311 315 315 312 314
249 248 247 248 249 249 247 244 241 239 238 239 239 239 239 238 236 233 231 230 232 233 234 237 237 235 233 228 223 221 222 217 209 208 211 214 216 218 220 222 223 221 219 217 216 215 214 213 214 214 215 217 221 223 223 221 217 214 214 215 215 216 218 219 220 226 231 234 239 246 251 254 261 268 274 279 284 291 296 303 309 313 315 314 313
253 245 244 244 245 246 247 246 244 241 238 238 239 238 237 237 236 234 231 230 231 232 233 234 235 235 235 234 230 226 225 223 214 209 211 214 215 217 218 221 222 218 215 217 218 217 217 218 219 220 218 218 221 224 224 222 218 214 214 214 215 217 219 220 221 226 231 234 237 244 248 251 255 261 267 272 278 286 293 300 307 310 313 313 313
260 245 239 241 242 242 243 244 244 244 240 237 236 237 238 237 237 235 232 230 230 231 232 231 232 234 234 235 235 231 226 225 224 217 213 213 214 216 218 220 221 217 215 218 220 219 217 218 221 224 223 222 224 225 225 223 219 217 215 213 215 218 219 220 222 225 230 233 236 241 246 248 251 256 261 267 273 282 289 295 302 308 310 312 314
268 245 234 235 238 238 239 240 240 242 241 239 235 235 238 239 238 237 235 232 230 230 230 229 229 231 233 235 237 235 228 226 227 224 219 218 217 217 218 219 220 219 217 219 221 220 218 217 220 224 225 225 227 227 227 224 220 218 217 212 214 219 220 221 222 225 228 232 235 239 243 245 248 251 256 262 268 275 283 289 296 303 307 310 312
286 247 230 230 234 237 238 238 237 238 239 239 238 237 239 241 240 237 236 235 233 231 230 229 228 228 230 233 236 236 230 226 227 228 228 226 220 216 217 219 219 219 219 219 221 222 220 218 219 223 225 226 227 227 229 227 223 223 221 218 218 222 221 220 221 223 227 230 234 238 242 244 245 249 253 257 263 269 276 283 290 297 303 306 308
316 262 230 228 232 235 237 237 236 236 237 238 240 240 241 243 241 236 233 234 234 233 231 230 228 227 228 230 234 235 230 228 228 228 229 229 223 218 218 219 219 219 220 220 221 222 222 219 219 222 225 225 225 226 228 228 228 230 226 223 225 225 221 218 219 222 226 229 233 238 241 244 245 247 250 254 258 263 270 277 283 291 298 301 304
324 303 245 232 233 236 237 237 236 236 237 239 240 241 243 245 242 235 231 231 233 233 232 231 229 227 226 228 232 233 231 229 227 224 226 227 225 222 221 220 220 218 218 219 220 222 223 222 221 224 226 226 225 226 227 227 230 231 227 226 228 224 217 215 216 221 226 229 232 237 241 245 246 247 249 253 256 260 265 272 278 285 292 297 300
308 308 289 259 246 242 240 239 238 238 238 239 239 240 244 245 240 234 228 227 229 230 231 231 230 228 227 226 229 231 231 231 228 224 224 226 224 224 225 222 220 218 216 218 220 223 225 224 223 225 227 228 228 227 226 226 229 229 226 226 226 219 214 213 216 221 226 229 232 236 241 245 248 250 250 252 255 258 262 267 274 280 286 290 295
288 285 283 280 271 262 254 248 244 242 241 241 239 239 243 242 237 231 226 224 226 228 230 232 231 228 227 225 227 229 230 232 230 225 224 225 223 225 229 226 221 219 219 220 222 223 226 227 226 227 229 230 231 231 229 227 228 227 224 223 222 218 215 215 218 223 227 230 233 236 240 244 249 252 253 254 256 258 261 266 270 276 281 285 290
278 272 269 271 274 275 272 262 251 245 242 241 240 240 240 238 232 228 224 222 224 228 231 233 231 228 226 225 225 227 229 231 230 225 222 224 223 223 228 229 225 221 221 225 225 222 224 228 228 228 230 233 234 235 233 230 229 228 225 224 224 222 219 218 221 225 229 233 237 238 240 244 249 253 255 256 258 259 261 265 269 273 278 282 287
280 270 268 269 273 279 280 268 249 238 236 237 238 238 236 232 227 225 223 222 224 228 232 234 233 229 226 225 225 225 226 229 230 225 222 223 224 224 225 227 227 226 225 227 227 224 225 229 230 230 231 232 233 235 236 235 232 231 228 225 223 222 222 223 226 229 233 237 239 239 240 243 248 253 256 258 259 261 262 265 268 272 276 281 285
301 275 268 267 271 276 278 261 236 226 228 232 235 234 230 225 222 222 223 223 224 227 232 235 234 230 226 225 224 224 224 226 228 225 222 223 225 225 225 225 226 226 226 227 228 228 229 229 230 230 230 231 232 233 234 234 232 229 227 223 222 223 223 225 227 230 234 236 237 238 239 243 248 253 256 258 260 261 263 265 268 270 274 278 282
332 294 269 264 264 263 261 244 222 215 216 222 228 228 225 221 219 220 224 225 225 228 234 237 236 231 226 224 224 224 223 224 227 226 223 223 225 225 225 225 225 225 225 226 228 229 229 229 230 230 229 231 233 233 233 232 228 227 226 223 223 225 224 224 225 228 231 232 234 237 239 242 247 252 256 259 260 261 262 264 267 270 273 275 278
344 324 280 260 258 255 250 239 225 217 212 212 215 220 222 221 221 222 225 228 229 231 234 237 237 234 228 224 223 223 223 223 225 226 224 223 225 225 225 226 227 227 227 227 228 229 230 230 231 231 230 230 232 234 235 234 232 233 235 233 229 227 227 227 228 229 231 232 234 236 239 241 245 250 254 257 260 261 262 262 265 269 271 273 275
346 342 310 259 253 253 249 244 239 231 225 221 218 219 222 224 226 228 230 232 233 233 234 236 238 237 232 227 224 223 223 222 223 225 225 224 225 226 225 226 228 230 229 228 229 230 231 231 230 231 231 231 233 236 238 238 236 235 238 239 235 232 232 233 233 234 236 237 235 235 237 239 242 246 251 255 257 260 261 261 263 267 270 271 272
346 348 335 270 251 253 251 249 247 244 242 239 234 232 231 230 230 230 230 231 232 231 231 233 237 239 236 230 225 223 223 223 223 225 226 226 225 226 226 227 229 230 230 230 230 231 232 232 229 231 233 232 235 238 238 237 236 235 236 238 236 233 234 235 235 236 239 240 239 237 236 237 240 244 248 253 256 258 260 261 262 265 268 269 270
348 352 350 307 260 254 253 252 251 250 250 248 245 243 240 238 236 234 231 230 229 230 230 230 233 237 237 233 228 224 223 223 224 225 226 227 227 227 227 228 229 231 231 231 231 232 234 233 229 230 233 235 237 237 233 233 236 236 236 237 235 232 233 235 236 237 239 241 241 240 239 239 240 242 246 251 255 256 259 261 262 263 266 269 270
351 354 354 342 296 268 260 256 254 254 253 252 251 248 245 243 241 239 236 232 230 230 231 230 230 231 232 233 229 225 224 224 224 225 226 227 228 228 228 229 230 232 233 233 232 233 235 234 230 231 236 238 237 233 230 232 236 236 235 235 234 233 233 234 236 238 239 241 242 243 243 242 243 244 246 249 253 255 257 260 262 263 265 268 271
352 355 351 347 331 296 275 267 265 263 262 262 262 259 255 250 246 242 239 235 232 230 229 228 228 227 227 229 228 224 223 223 224 226 227 228 229 230 229 230 231 233 234 234 233 233 235 234 232 232 236 237 233 231 231 233 236 237 235 233 233 234 235 236 237 239 240 242 244 245 245 245 246 247 248 250 253 255 256 258 261 262 264 267 270
345 353 352 347 338 309 275 267 266 268 271 273 274 273 268 261 254 246 239 234 231 229 228 227 228 229 229 229 228 224 222 222 223 225 227 229 231 232 231 230 231 233 235 235 234 234 235 235 234 234 235 234 234 233 234 234 236 237 235 234 234 235 236 237 239 240 242 243 245 246 246 247 248 249 250 253 255 256 257 257 260 262 263 265 269
337 346 352 350 346 332 289 266 264 268 273 278 283 284 279 270 262 250 237 231 228 227 227 228 230 231 231 230 228 224 222 222 222 223 226 227 229 232 233 233 232 233 235 236 236 235 235 236 236 235 235 236 237 236 233 234 236 237 237 236 236 237 238 239 240 242 243 245 246 246 247 248 249 251 253 255 256 258 259 259 260 261 262 264 267
336 337 345 349 351 347 322 286 274 275 279 283 289 292 286 275 264 248 231 223 223 223 224 226 229 231 232 230 226 221 219 219 220 222 226 226 224 225 229 232 233 234 235 237 237 236 236 237 237 237 237 238 239 238 236 236 238 239 240 241 240 239 240 241 242 243 244 245 247 248 248 248 249 250 252 254 256 258 260 261 261 261 262 263 264
342 335 338 345 350 348 337 311 289 284 286 289 294 298 293 277 260 241 223 215 218 221 222 224 226 228 231 231 228 222 219 218 218 220 223 224 223 223 225 227 230 233 235 238 239 237 236 237 237 238 238 239 240 240 239 239 239 240 243 245 245 243 241 241 243 244 244 245 247 248 248 248 248 249 250 252 254 255 258 261 262 261 262 261 260
350 342 335 337 339 338 335 329 311 296 291 291 293 299 299 276 252 237 223 218 221 222 222 223 225 226 228 230 229 226 222 219 219 219 219 220 222 226 228 228 228 230 232 235 238 238 238 237 238 238 240 241 241 241 240 240 240 241 244 248 249 248 246 244 243 244 245 245 246 247 248 248 248 250 251 252 254 254 256 259 260 260 260 259 258
353 350 342 335 332 331 331 333 328 314 299 293 293 293 293 278 253 239 230 227 229 228 224 223 224 225 226 228 229 228 225 223 222 221 221 219 219 223 229 228 227 228 230 232 233 234 235 238 238 238 239 239 239 239 239 239 240 242 245 248 250 251 251 249 245 243 245 247 247 248 249 249 250 252 254 255 256 256 257 258 258 258 258 258 257
356 355 351 346 341 336 333 334 335 332 319 304 296 290 286 276 256 244 237 234 233 233 232 229 227 226 226 227 228 228 227 227 226 224 223 220 218 222 228 227 222 222 226 230 229 227 228 232 233 233 234 234 235 238 239 239 240 242 245 247 249 251 254 253 248 243 243 246 248 249 251 252 252 253 255 256 256 256 257 259 260 258 257 256 256
358 357 356 354 350 346 341 337 338 342 340 328 313 302 295 281 263 250 243 241 238 236 236 235 232 230 228 227 228 229 228 228 228 227 226 223 222 225 229 225 220 219 223 226 226 225 228 229 228 229 232 234 236 239 240 240 241 243 244 246 248 250 253 253 249 244 243 245 247 249 251 252 253 253 254 254 253 254 256 260 261 259 257 257 258
359 358 357 357 354 352 349 346 342 342 344 343 331 314 303 292 278 262 250 247 246 242 240 238 236 234 232 231 231 231 229 229 229 230 229 228 227 228 226 223 221 223 225 226 224 224 226 229 229 230 232 233 235 237 238 240 241 242 243 244 245 248 249 249 248 247 246 245 246 247 249 251 252 253 253 252 252 253 255 257 257 256 256 259 261
358 357 356 355 354 352 351 350 347 343 341 340 336 327 314 304 295 278 259 250 249 248 246 244 241 238 237 235 235 235 234 231 230 231 231 231 231 230 228 227 227 228 231 232 230 226 225 225 226 229 231 231 233 235 236 238 239 240 241 242 243 245 246 247 248 248 247 246 246 247 247 248 251 252 253 252 251 251 253 254 254 255 257 261 265
354 354 353 352 351 350 349 347 347 346 342 339 337 335 328 318 312 303 279 258 252 251 251 249 247 244 241 239 238 238 238 236 234 232 231 232 233 234 234 235 235 235 235 237 235 232 229 228 227 228 231 232 232 233 234 236 237 238 237 238 240 241 243 245 247 247 246 245 246 247 247 246 247 250 251 252 252 252 253 255 255 257 259 262 265
345 347 349 348 347 346 345 344 342 343 342 340 338 336 333 327 320 314 303 280 260 253 253 252 251 249 246 243 241 239 238 239 238 237 235 233 233 235 237 238 239 238 238 238 237 235 233 231 230 230 231 232 232 232 233 234 235 235 234 235 237 239 240 243 245 245 243 242 242 243 245 245 246 248 250 252 254 255 256 256 256 257 259 261 263
335 336 339 340 340 339 339 339 338 339 340 338 336 333 333 332 327 319 310 300 284 268 260 257 255 252 250 247 244 241 240 239 239 240 240 238 236 235 236 237 238 238 238 238 237 236 234 233 233 232 231 232 233 233 233 233 234 235 234 235 237 239 241 243 244 245 244 242 240 241 243 245 247 249 250 252 254 256 257 258 258 258 259 261 263
326 328 328 329 330 331 332 333 334 335 335 334 332 330 328 328 328 324 318 311 303 292 284 278 270 261 254 250 247 245 243 242 241 239 240 241 240 239 238 237 237 237 236 236 235 234 233 234 234 233 232 232 233 234 234 235 236 236 235 235 236 239 241 242 242 243 244 243 242 242 243 245 248 249 252 254 256 257 257 258 259 260 261 262 263
Height
5740 5742 5745 5750 5754 5757 5760 5762 5765 5766 5768 5772 5773 5774 5776 5778 5782 5787 5790 5791 5793 5796 5798 5801 5805 5808 5811 5814 5817 5821 5823 5826 5828 5831 5832 5834 5836 5838 5840 5842 5844 5847 5850 5852 5854 5856 5858 5859 5860 5860 5861 5861 5861 5861 5862 5862 5862 5863 5863 5862 5862 5862 5862 5862 5861 5861 5862 5862 5861 5860 5860 5860 5860 5860 5860 5859 5859 5858 5858 5857 5855 5855 5854 5853 5851
5737 5738 5741 5745 5748 5752 5755 5757 5759 5761 5763 5767 5769 5769 5771 5774 5777 5781 5785 5788 5789 5793 5795 5797 5801 5804 5808 5812 5815 5817 5819 5822 5824 5827 5830 5831 5832 5835 5837 5840 5841 5844 5846 5849 5851 5854 5856 5858 5858 5859 5859 5860 5860 5861 5861 5861 5861 5861 5861 5861 5861 5861 5861 5860 5860 5860 5860 5860 5859 5859 5858 5859 5859 5859 5859 5858 5858 5857 5857 5856 5854 5853 5853 5852 5851
5733 5734 5736 5739 5742 5746 5748 5751 5753 5755 5757 5762 5764 5764 5766 5769 5773 5776 5780 5782 5785 5789 5792 5795 5798 5800 5804 5808 5811 5813 5814 5816 5820 5823 5826 5827 5829 5831 5834 5837 5839 5841 5843 5845 5849 5851 5854 5856 5857 5858 5858 5859 5859 5860 5860 5860 5860 5860 5860 5860 5860 5860 5860 5859 5859 5859 5859 5859 5858 5858 5857 5858 5858 5858 5857 5857 5857 5856 5856 5854 5853 5852 5851 5851 5849
5728 5729 5731 5733 5736 5739 5742 5744 5747 5749 5751 5756 5758 5759 5761 5765 5769 5772 5775 5777 5780 5785 5789 5792 5795 5798 5800 5803 5805 5808 5810 5812 5815 5818 5821 5824 5826 5828 5831 5834 5836 5838 5840 5842 5846 5849 5851 5853 5855 5856 5857 5857 5858 5858 5859 5859 5859 5859 5859 5859 5859 5859 5858 5858 5858 5858 5858 5858 5857 5857 5856 5856 5857 5857 5856 5856 5855 5855 5854 5853 5852 5851 5850 5849 5848
5724 5725 5725 5727 5730 5732 5736 5739 5742 5744 5746 5749 5753 5754 5756 5760 5764 5768 5771 5774 5777 5782 5785 5788 5792 5795 5797 5799 5801 5805 5807 5810 5811 5814 5818 5822 5825 5828 5830 5832 5833 5835 5837 5839 5843 5846 5849 5851 5852 5854 5855 5856 5856 5857 5857 5857 5857 5857 5857 5857 5857 5858 5858 5857 5857 5857 5857 5856 5856 5856 5855 5855 5856 5855 5855 5855 5854 5854 5853 5852 5850 5849 5848 5848 5847
5720 5720 5720 5722 5725 5728 5731 5733 5736 5738 5740 5743 5747 5749 5751 5755 5759 5764 5767 5770 5774 5778 5781 5784 5787 5791 5794 5797 5799 5801 5804 5807 5810 5813 5817 5820 5823 5826 5829 5830 5830 5832 5834 5836 5839 5842 5845 5848 5850 5852 5853 5854 5855 5855 5856 5856 5856 5856 5856 5856 5856 5856 5856 5857 5856 5856 5856 5856 5855 5855 5855 5855 5854 5854 5854 5853 5853 5852 5851 5850 5848 5847 5847 5846 5845
5716 5716 5717 5718 5721 5724 5726 5728 5730 5732 5733 5737 5741 5744 5746 5750 5754 5758 5762 5765 5769 5773 5777 5779 5782 5786 5790 5793 5796 5798 5802 5805 5809 5812 5816 5819 5821 5822 5824 5826 5828 5829 5832 5833 5836 5839 5842 5845 5847 5849 5851 5852 5853 5853 5854 5854 5854 5854 5854 5854 5855 5855 5855 5855 5855 5855 5855 5855 5854 5854 5854 5853 5853 5853 5853 5852 5851 5851 5849 5848 5847 5846 5845 5844 5844
5711 5712 5713 5715 5717 5719 5721 5723 5725 5727 5728 5731 5735 5738 5741 5745 5749 5753 5756 5760 5764 5768 5771 5774 5777 5781 5785 5788 5791 5795 5799 5803 5807 5810 5812 5815 5816 5818 5820 5823 5825 5827 5829 5831 5833 5836 5839 5842 5844 5846 5848 5850 5851 5851 5851 5852 5852 5853 5853 5853 5853 5853 5853 5853 5853 5854 5854 5854 5854 5853 5853 5852 5852 5851 5851 5850 5850 5849 5848 5846 5846 5845 5844 5843 5842
5707 5708 5709 5711 5712 5714 5716 5719 5721 5723 5724 5726 5729 5733 5736 5739 5743 5747 5751 5755 5759 5762 5765 5769 5773 5776 5779 5783 5786 5790 5794 5799 5803 5806 5808 5810 5812 5815 5818 5820 5822 5824 5826 5828 5830 5833 5835 5838 5841 5843 5845 5847 5848 5849 5849 5850 5851 5851 5851 5851 5852 5852 5852 5852 5852 5852 5853 5853 5853 5852 5852 5851 5851 5850 5849 5849 5848 5848 5847 5846 5845 5844 5844 5842 5841
5703 5704 5705 5707 5708 5709 5711 5713 5716 5718 5720 5722 5725 5728 5730 5733 5737 5742 5746 5750 5753 5757 5759 5763 5767 5771 5774 5778 5781 5785 5789 5793 5797 5801 5804 5806 5808 5811 5815 5817 5819 5822 5823 5825 5827 5829 5832 5835 5837 5840 5842 5844 5845 5846 5847 5847 5848 5848 5849 5849 5850 5850 5850 5850 5850 5851 5851 5852 5851 5851 5851 5850 5850 5849 5848 5847 5846 5846 5846 5846 5845 5844 5843 5842 5841
5699 5700 5701 5703 5704 5705 5706 5708 5711 5713 5715 5718 5720 5723 5726 5728 5732 5736 5740 5744 5747 5750 5753 5756 5761 5765 5768 5772 5776 5779 5782 5786 5790 5794 5798 5801 5804 5807 5811 5814 5817 5819 5820 5822 5824 5826 5829 5831 5834 5836 5838 5840 5842 5843 5844 5844 5845 5846 5846 5847 5848 5848 5848 5848 5849 5850 5850 5850 5850 5850 5850 5849 5849 5848 5847 5846 5845 5845 5845 5845 5845 5844 5842 5841 5840
5694 5695 5696 5698 5700 5701 5702 5704 5706 5708 5711 5713 5715 5718 5721 5724 5727 5731 5735 5738 5741 5744 5746 5750 5755 5759 5763 5766 5770 5773 5776 5779 5783 5788 5792 5796 5799 5802 5806 5810 5813 5815 5816 5818 5821 5823 5825 5827 5830 5833 5835 5837 5839 5840 5840 5841 5842 5843 5844 5844 5845 5845 5846 5847 5847 5848 5848 5849 5849 5849 5848 5848 5847 5846 5846 5845 5844 5844 5844 5844 5844 5843 5841 5839 5838
5689 5690 5691 5693 5695 5696 5698 5699 5701 5703 5706 5708 5710 5713 5716 5719 5723 5726 5729 5732 5735 5737 5740 5744 5749 5753 5757 5760 5763 5766 5770 5773 5776 5780 5785 5790 5794 5797 5801 5805 5808 5811 5812 5814 5817 5819 5821 5824 5826 5829 5832 5834 5835 5836 5836 5837 5838 5839 5840 5841 5842 5843 5844 5845 5846 5846 5847 5847 5847 5847 5847 5847 5846 5845 5845 5844 5843 5843 5842 5842 5842 5841 5840 5838 5837
5683 5684 5686 5687 5689 5692 5693 5695 5697 5699 5701 5703 5705 5708 5711 5714 5718 5721 5724 5726 5729 5732 5735 5739 5742 5747 5752 5755 5757 5760 5763 5766 5769 5772 5778 5784 5788 5792 5795 5799 5803 5806 5808 5810 5812 5815 5818 5819 5822 5825 5827 5829 5830 5831 5832 5833 5834 5835 5837 5838 5839 5840 5841 5842 5844 5845 5845 5845 5845 5846 5846 5845 5845 5844 5844 5843 5842 5841 5841 5841 5841 5840 5838 5837 5836
5677 5679 5680 5682 5684 5686 5689 5691 5693 5694 5696 5698 5700 5702 5705 5709 5713 5716 5718 5721 5724 5727 5731 5734 5736 5741 5746 5750 5753 5755 5757 5759 5761 5765 5771 5777 5783 5786 5789 5793 5797 5800 5803 5806 5808 5811 5813 5815 5817 5820 5822 5824 5825 5826 5827 5828 5829 5831 5832 5834 5835 5837 5838 5840 5841 5842 5843 5843 5844 5844 5844 5844 5843 5843 5842 5842 5841 5840 5840 5839 5839 5838 5837 5836 5835
5672 5673 5674 5676 5679 5681 5684 5686 5688 5690 5692 5694 5695 5697 5700 5703 5707 5710 5713 5715 5719 5722 5726 5729 5731 5735 5740 5744 5747 5750 5752 5753 5755 5759 5765 5771 5777 5781 5785 5788 5792 5794 5798 5802 5804 5806 5808 5810 5812 5814 5817 5819 5821 5822 5822 5823 5825 5826 5827 5829 5831 5833 5835 5837 5838 5840 5840 5841 5842 5842 5842 5842 5842 5841 5841 5840 5840 5839 5838 5838 5837 5837 5836 5835 5834
5666 5667 5669 5671 5673 5676 5678 5681 5684 5686 5688 5689 5691 5693 5695 5698 5701 5705 5707 5710 5713 5717 5720 5723 5726 5729 5733 5737 5742 5746 5747 5748 5751 5755 5761 5766 5771 5775 5779 5782 5786 5790 5794 5797 5800 5801 5803 5804 5807 5809 5812 5814 5815 5816 5817 5819 5820 5821 5823 5824 5826 5829 5831 5833 5835 5837 5838 5839 5839 5840 5840 5840 5840 5840 5839 5839 5838 5838 5837 5837 5836 5836 5835 5834 5832
5661 5662 5664 5665 5667 5670 5673 5676 5679 5681 5683 5685 5686 5688 5690 5692 5696 5699 5702 5705 5708 5711 5714 5716 5720 5724 5727 5731 5737 5741 5743 5744 5747 5751 5756 5761 5766 5770 5773 5777 5781 5785 5788 5791 5794 5795 5796 5797 5799 5802 5805 5807 5809 5810 5811 5813 5815 5817 5818 5820 5822 5825 5827 5830 5832 5834 5835 5836 5837 5837 5837 5838 5838 5838 5838 5837 5837 5836 5836 5835 5835 5834 5833 5832 5831
5655 5656 5658 5660 5662 5665 5668 5670 5673 5675 5678 5680 5681 5684 5686 5688 5690 5694 5697 5700 5703 5705 5708 5711 5715 5719 5722 5726 5731 5735 5738 5740 5743 5747 5752 5756 5760 5765 5769 5773 5776 5779 5782 5785 5787 5788 5790 5792 5793 5795 5798 5801 5803 5805 5807 5809 5811 5813 5814 5816 5818 5821 5824 5826 5828 5830 5832 5833 5834 5834 5835 5835 5835 5835 5836 5836 5835 5835 5834 5834 5833 5833 5832 5831 5831
5648 5650 5653 5655 5657 5660 5663 5665 5668 5670 5673 5675 5677 5679 5681 5683 5686 5688 5691 5695 5697 5700 5703 5706 5710 5714 5717 5721 5724 5727 5733 5737 5739 5743 5748 5752 5755 5760 5763 5767 5770 5773 5777 5780 5782 5784 5787 5790 5792 5793 5794 5796 5798 5801 5805 5807 5808 5809 5810 5812 5814 5817 5820 5823 5825 5827 5828 5830 5831 5831 5831 5832 5833 5833 5834 5834 5834 5833 5832 5832 5832 5831 5831 5831 5830
5642 5644 5647 5650 5652 5655 5658 5660 5663 5665 5667 5670 5672 5674 5676 5679 5681 5683 5686 5689 5692 5695 5698 5701 5705 5708 5712 5715 5717 5721 5727 5733 5735 5738 5742 5746 5750 5754 5756 5760 5764 5768 5771 5774 5776 5779 5782 5785 5788 5790 5793 5794 5795 5799 5802 5804 5805 5806 5806 5808 5810 5813 5816 5819 5821 5823 5825 5826 5827 5828 5828 5829 5830 5831 5831 5832 5831 5831 5831 5830 5830 5829 5829 5829 5828
5638 5639 5642 5645 5647 5649 5652 5655 5658 5660 5662 5664 5667 5669 5672 5674 5677 5679 5681 5683 5686 5689 5692 5696 5700 5703 5707 5710 5712 5716 5722 5727 5730 5733 5736 5740 5745 5748 5750 5754 5759 5763 5765 5767 5770 5772 5775 5778 5783 5788 5792 5794 5796 5798 5801 5802 5803 5803 5803 5804 5807 5810 5812 5815 5817 5819 5821 5823 5823 5824 5825 5826 5827 5828 5829 5829 5829 5829 5828 5828 5828 5827 5827 5827 5827
5635 5636 5637 5640 5642 5645 5648 5650 5653 5655 5657 5659 5662 5664 5667 5669 5672 5674 5676 5678 5681 5684 5687 5690 5694 5699 5703 5705 5708 5712 5716 5721 5726 5730 5733 5736 5739 5742 5745 5750 5754 5757 5759 5761 5764 5767 5771 5775 5779 5783 5787 5791 5794 5797 5799 5802 5802 5801 5800 5801 5803 5806 5808 5810 5813 5815 5817 5819 5820 5821 5822 5823 5824 5825 5826 5827 5827 5827 5826 5826 5825 5825 5825 5825 5825
5635 5634 5635 5636 5638 5641 5643 5645 5648 5651 5653 5654 5656 5659 5661 5663 5666 5669 5672 5674 5676 5678 5681 5685 5689 5693 5697 5701 5704 5707 5711 5716 5722 5727 5730 5732 5735 5737 5741 5745 5748 5751 5754 5756 5760 5764 5768 5772 5775 5779 5782 5786 5789 5792 5796 5799 5800 5799 5798 5798 5798 5800 5803 5806 5808 5811 5813 5815 5817 5818 5819 5820 5821 5822 5823 5824 5825 5825 5824 5824 5823 5823 5823 5823 5824
5635 5634 5634 5635 5636 5638 5639 5641 5643 5645 5648 5650 5651 5653 5656 5658 5660 5663 5666 5669 5672 5674 5676 5679 5683 5687 5692 5695 5699 5702 5706 5710 5716 5722 5725 5727 5731 5733 5737 5740 5743 5746 5749 5752 5757 5761 5765 5769 5773 5776 5779 5783 5786 5788 5791 5793 5794 5795 5796 5796 5794 5795 5797 5801 5804 5807 5809 5811 5813 5815 5816 5818 5819 5820 5821 5822 5822 5823 5822 5822 5821 5821 5822 5821 5821
5634 5633 5633 5633 5634 5635 5636 5637 5638 5640 5642 5644 5646 5647 5650 5653 5655 5657 5660 5664 5667 5669 5672 5674 5678 5682 5686 5690 5693 5697 5701 5705 5710 5716 5719 5721 5726 5729 5732 5736 5740 5743 5745 5749 5754 5758 5762 5766 5769 5773 5776 5779 5781 5782 5785 5787 5789 5791 5794 5794 5792 5792 5793 5797 5800 5803 5806 5808 5810 5812 5814 5815 5816 5817 5818 5819 5820 5821 5820 5820 5820 5820 5820 5819 5819
5633 5632 5631 5631 5631 5631 5631 5632 5633 5634 5636 5638 5639 5641 5643 5647 5650 5652 5655 5658 5662 5665 5667 5669 5672 5676 5680 5685 5688 5692 5696 5699 5704 5710 5713 5716 5720 5724 5727 5731 5735 5738 5741 5745 5750 5754 5758 5761 5765 5768 5770 5773 5775 5777 5780 5783 5785 5788 5790 5791 5791 5790 5791 5794 5798 5800 5803 5805 5807 5810 5811 5813 5814 5815 5816 5817 5818 5819 5818 5818 5818 5818 5818 5817 5817
5631 5630 5629 5628 5628 5627 5626 5625 5626 5628 5630 5632 5634 5636 5637 5641 5644 5646 5650 5653 5657 5660 5662 5664 5667 5670 5675 5680 5683 5687 5690 5693 5698 5703 5708 5711 5715 5719 5723 5727 5731 5733 5737 5741 5744 5749 5753 5756 5759 5762 5764 5768 5771 5772 5776 5780 5781 5783 5785 5788 5789 5788 5789 5792 5795 5798 5800 5803 5805 5807 5809 5811 5812 5812 5813 5815 5816 5817 5816 5816 5816 5816 5816 5816 5815
5627 5627 5626 5626 5625 5624 5622 5621 5621 5623 5625 5628 5630 5632 5633 5636 5640 5642 5646 5649 5652 5655 5658 5659 5662 5665 5670 5674 5678 5681 5685 5688 5691 5697 5702 5707 5710 5713 5718 5722 5725 5728 5731 5735 5739 5743 5747 5750 5753 5756 5758 5762 5766 5768 5772 5775 5777 5778 5782 5785 5786 5785 5786 5789 5792 5795 5798 5800 5802 5804 5806 5808 5809 5809 5810 5812 5813 5814 5814 5814 5814 5814 5814 5814 5814
5624 5623 5623 5623 5623 5622 5620 5619 5619 5620 5623 5625 5627 5628 5629 5632 5636 5639 5642 5645 5648 5651 5653 5655 5658 5661 5664 5668 5672 5676 5679 5682 5685 5690 5696 5701 5705 5708 5712 5715 5718 5722 5726 5729 5733 5737 5741 5744 5746 5750 5753 5756 5760 5764 5768 5771 5773 5775 5778 5782 5781 5779 5780 5784 5788 5791 5794 5797 5799 5801 5803 5804 5805 5806 5807 5808 5810 5811 5812 5812 5812 5812 5812 5812 5812
5622 5620 5620 5620 5620 5620 5619 5619 5619 5619 5621 5622 5624 5626 5627 5630 5634 5637 5639 5642 5645 5647 5649 5651 5653 5656 5658 5662 5666 5670 5674 5677 5680 5685 5690 5695 5699 5703 5707 5709 5712 5715 5720 5724 5728 5731 5735 5739 5742 5745 5748 5751 5754 5758 5763 5767 5770 5771 5774 5776 5775 5773 5774 5777 5781 5785 5789 5792 5794 5796 5798 5801 5802 5803 5804 5805 5806 5807 5808 5809 5809 5809 5810 5809 5809
5621 5618 5617 5617 5618 5618 5618 5618 5619 5619 5620 5620 5622 5624 5626 5628 5631 5634 5636 5639 5641 5643 5645 5648 5649 5651 5653 5656 5660 5664 5668 5672 5676 5679 5684 5689 5693 5697 5701 5704 5706 5710 5714 5718 5722 5726 5730 5734 5737 5740 5743 5746 5748 5752 5757 5761 5765 5767 5768 5769 5771 5771 5771 5773 5776 5779 5783 5786 5789 5791 5793 5796 5798 5799 5800 5801 5802 5803 5804 5805 5806 5806 5807 5806 5806
5620 5617 5615 5615 5616 5617 5617 5617 5618 5618 5619 5620 5621 5622 5624 5626 5628 5630 5633 5635 5637 5639 5641 5643 5645 5647 5649 5651 5654 5658 5663 5667 5671 5675 5678 5683 5687 5691 5696 5699 5702 5705 5709 5713 5717 5721 5724 5728 5732 5735 5737 5741 5744 5748 5751 5754 5757 5761 5762 5763 5766 5769 5770 5771 5774 5777 5780 5782 5784 5786 5788 5790 5792 5794 5795 5796 5797 5799 5800 5801 5802 5803 5803 5803 5803
5620 5617 5615 5614 5614 5615 5615 5616 5616 5617 5618 5619 5620 5621 5622 5623 5625 5627 5628 5630 5632 5634 5636 5638 5640 5642 5644 5646 5649 5653 5657 5662 5667 5670 5673 5677 5681 5686 5690 5694 5697 5700 5704 5708 5713 5717 5719 5722 5726 5729 5732 5736 5740 5744 5746 5748 5750 5754 5755 5757 5761 5764 5766 5768 5771 5774 5776 5779 5780 5782 5783 5785 5787 5789 5790 5792 5793 5795 5796 5797 5798 5799 5800 5800 5799
5620 5618 5615 5614 5614 5614 5614 5614 5614 5615 5616 5617 5618 5618 5619 5620 5621 5622 5624 5626 5628 5629 5630 5632 5634 5637 5640 5643 5645 5649 5653 5657 5662 5666 5669 5672 5676 5680 5684 5689 5692 5696 5700 5704 5708 5712 5714 5717 5721 5724 5727 5731 5735 5739 5741 5743 5746 5748 5750 5752 5756 5758 5760 5763 5766 5769 5772 5774 5776 5777 5779 5781 5783 5785 5787 5788 5789 5791 5792 5794 5795 5796 5796 5796 5796
5620 5618 5615 5614 5613 5613 5613 5612 5613 5613 5614 5614 5615 5615 5615 5616 5617 5618 5620 5621 5623 5624 5625 5627 5629 5632 5636 5639 5642 5645 5649 5653 5658 5661 5664 5668 5672 5675 5680 5684 5687 5691 5695 5699 5703 5707 5710 5713 5716 5719 5722 5726 5729 5733 5736 5738 5741 5743 5745 5747 5750 5753 5755 5758 5761 5765 5767 5769 5771 5772 5775 5777 5779 5781 5783 5784 5785 5786 5788 5790 5791 5792 5792 5792 5793
5620 5617 5615 5614 5612 5612 5611 5611 5611 5611 5611 5611 5611 5611 5611 5612 5612 5613 5615 5617 5619 5620 5622 5624 5625 5627 5631 5633 5636 5638 5642 5648 5653 5657 5661 5666 5668 5671 5675 5679 5682 5685 5688 5693 5697 5701 5703 5707 5710 5714 5718 5721 5724 5728 5731 5734 5736 5738 5740 5742 5744 5747 5751 5754 5757 5760 5762 5765 5766 5768 5770 5772 5774 5776 5779 5780 5781 5781 5783 5786 5787 5788 5789 5789 5789
5619 5617 5615 5613 5612 5610 5609 5609 5609 5609 5609 5609 5608 5608 5608 5607 5607 5608 5610 5612 5614 5617 5619 5620 5622 5624 5626 5628 5630 5633 5636 5641 5646 5651 5656 5661 5665 5668 5671 5675 5678 5680 5683 5686 5691 5694 5697 5700 5704 5709 5713 5716 5719 5723 5726 5728 5731 5733 5734 5736 5739 5742 5746 5749 5752 5754 5757 5759 5762 5764 5766 5768 5770 5772 5774 5776 5776 5776 5778 5781 5783 5784 5785 5786 5786
5618 5617 5615 5613 5611 5609 5608 5607 5607 5607 5606 5606 5605 5605 5604 5603 5603 5603 5604 5607 5610 5613 5616 5617 5619 5621 5622 5624 5626 5629 5632 5636 5640 5645 5649 5654 5659 5664 5667 5670 5673 5676 5678 5680 5683 5686 5690 5693 5697 5701 5705 5709 5713 5716 5720 5722 5725 5726 5728 5731 5734 5737 5740 5743 5746 5749 5752 5754 5756 5759 5761 5763 5766 5768 5769 5770 5771 5771 5772 5776 5779 5779 5781 5783 5783
5618 5615 5614 5612 5611 5609 5607 5607 5606 5605 5604 5603 5602 5602 5601 5600 5599 5599 5601 5603 5607 5610 5613 5615 5616 5617 5619 5620 5622 5624 5627 5629 5633 5637 5641 5646 5652 5657 5660 5663 5667 5670 5673 5675 5676 5680 5684 5686 5689 5693 5697 5701 5705 5708 5712 5716 5719 5720 5722 5725 5728 5731 5734 5737 5740 5743 5746 5749 5751 5754 5756 5758 5761 5762 5764 5765 5766 5766 5766 5769 5772 5774 5777 5780 5778
5618 5615 5613 5612 5610 5609 5607 5606 5605 5604 5603 5602 5600 5599 5599 5598 5598 5598 5599 5602 5605 5607 5609 5611 5613 5614 5615 5616 5618 5619 5622 5624 5626 5630 5634 5639 5644 5649 5652 5655 5659 5663 5667 5667 5666 5669 5675 5678 5680 5685 5689 5693 5697 5700 5704 5709 5712 5714 5716 5719 5722 5725 5728 5731 5733 5736 5739 5743 5745 5748 5750 5753 5755 5756 5758 5759 5760 5761 5761 5762 5764 5768 5773 5774 5771
5618 5616 5614 5612 5610 5608 5607 5606 5604 5603 5602 5600 5599 5598 5597 5597 5597 5597 5598 5600 5602 5604 5605 5607 5608 5609 5610 5612 5613 5615 5617 5619 5621 5624 5627 5631 5636 5642 5647 5650 5652 5655 5657 5657 5656 5659 5665 5669 5673 5677 5681 5685 5688 5692 5695 5700 5705 5708 5710 5712 5715 5719 5722 5724 5727 5730 5732 5736 5739 5741 5744 5747 5749 5749 5751 5752 5754 5755 5755 5755 5758 5762 5766 5766 5765
5617 5615 5614 5612 5610 5608 5606 5605 5603 5602 5600 5599 5598 5597 5596 5596 5596 5596 5597 5598 5599 5601 5602 5603 5604 5605 5606 5607 5609 5610 5612 5614 5616 5619 5622 5625 5629 5634 5639 5642 5644 5647 5649 5650 5650 5652 5657 5661 5665 5669 5673 5676 5680 5683 5687 5692 5697 5700 5703 5706 5709 5711 5714 5717 5720 5723 5726 5729 5731 5734 5737 5740 5742 5743 5743 5745 5747 5749 5750 5750 5751 5755 5757 5757 5757
5616 5614 5613 5611 5610 5608 5606 5604 5602 5600 5599 5598 5597 5596 5595 5595 5595 5595 5595 5595 5596 5597 5598 5599 5600 5601 5602 5603 5604 5606 5607 5609 5611 5613 5616 5619 5621 5625 5628 5630 5633 5637 5641 5643 5645 5648 5651 5652 5654 5658 5663 5668 5671 5674 5679 5684 5689 5693 5696 5700 5702 5704 5706 5709 5712 5716 5720 5722 5725 5728 5730 5733 5736 5737 5737 5738 5740 5741 5743 5744 5745 5748 5749 5748 5749
5616 5614 5612 5610 5609 5607 5605 5603 5601 5599 5598 5597 5596 5595 5594 5594 5593 5593 5592 5592 5592 5593 5594 5595 5596 5597 5599 5599 5600 5601 5603 5605 5607 5608 5610 5613 5615 5617 5619 5621 5623 5626 5630 5635 5639 5643 5643 5644 5646 5651 5656 5661 5664 5667 5672 5677 5682 5686 5689 5693 5696 5697 5699 5701 5704 5708 5712 5716 5719 5722 5724 5726 5728 5730 5731 5732 5733 5735 5738 5739 5740 5740 5740 5739 5741
5616 5614 5612 5610 5608 5606 5604 5602 5601 5599 5597 5596 5595 5595 5593 5592 5591 5590 5590 5590 5590 5590 5590 5591 5592 5593 5594 5595 5596 5597 5598 5600 5602 5604 5605 5607 5608 5610 5613 5615 5617 5620 5623 5626 5630 5631 5632 5636 5641 5646 5651 5655 5658 5660 5664 5670 5674 5678 5682 5685 5688 5690 5691 5693 5696 5700 5704 5708 5711 5714 5718 5720 5722 5723 5724 5726 5727 5730 5731 5731 5731 5731 5730 5732 5735
5616 5614 5612 5610 5608 5606 5604 5602 5600 5598 5597 5595 5594 5594 5593 5591 5589 5588 5588 5588 5587 5587 5587 5587 5588 5589 5590 5591 5591 5592 5593 5595 5596 5598 5600 5602 5603 5605 5607 5609 5612 5615 5618 5621 5623 5624 5626 5630 5635 5639 5643 5646 5650 5653 5657 5662 5667 5671 5675 5678 5680 5682 5684 5686 5689 5693 5697 5700 5703 5707 5711 5714 5715 5716 5716 5718 5720 5722 5723 5723 5723 5724 5725 5727 5731
5616 5615 5612 5610 5608 5606 5604 5602 5600 5597 5596 5594 5593 5591 5590 5590 5588 5587 5586 5585 5585 5585 5585 5584 5584 5585 5585 5586 5587 5588 5589 5590 5591 5592 5594 5596 5597 5599 5601 5603 5606 5609 5612 5615 5618 5620 5622 5625 5629 5632 5635 5638 5642 5646 5651 5655 5659 5664 5668 5670 5671 5674 5676 5678 5682 5687 5690 5693 5695 5698 5702 5706 5707 5707 5708 5710 5713 5715 5716 5717 5717 5719 5721 5723 5725
5615 5614 5612 5610 5608 5606 5604 5602 5599 5597 5595 5593 5591 5590 5588 5588 5587 5585 5584 5583 5583 5582 5582 5581 5581 5581 5581 5581 5582 5583 5584 5585 5585 5586 5588 5589 5591 5592 5594 5597 5600 5603 5605 5608 5611 5614 5617 5621 5624 5626 5628 5631 5635 5640 5643 5647 5650 5654 5658 5660 5662 5664 5667 5671 5675 5678 5680 5683 5686 5689 5692 5696 5698 5699 5701 5704 5706 5708 5710 5711 5712 5713 5715 5717 5718
5613 5612 5610 5609 5608 5606 5603 5601 5599 5596 5594 5592 5590 5588 5587 5586 5585 5584 5582 5581 5580 5579 5578 5578 5577 5577 5576 5577 5577 5577 5578 5578 5579 5580 5581 5583 5584 5586 5587 5589 5593 5595 5598 5601 5604 5607 5611 5615 5617 5619 5622 5626 5629 5632 5635 5638 5640 5644 5648 5652 5654 5656 5659 5663 5667 5668 5669 5674 5678 5682 5685 5688 5691 5693 5696 5699 5701 5703 5704 5705 5706 5707 5709 5710 5712
5612 5610 5608 5607 5605 5604 5602 5600 5597 5595 5593 5591 5589 5587 5585 5584 5583 5581 5580 5579 5578 5576 5575 5574 5573 5572 5572 5572 5572 5572 5572 5572 5573 5574 5574 5575 5577 5578 5580 5582 5585 5587 5590 5593 5596 5600 5603 5606 5609 5612 5616 5619 5622 5625 5628 5631 5634 5637 5641 5645 5647 5649 5652 5655 5658 5659 5662 5668 5673 5676 5679 5682 5685 5688 5690 5693 5694 5696 5697 5697 5699 5700 5701 5703 5705